Flag for U.S.A. Weather past 2 weeks in Fairfax, Virginia, U.S.A.

Now
41 °F

Light rain. Fog.


Feels Like: 41 °F
Forecast: 42 / 61 °F
Wind: No wind

Location: Washington-Dulles International Airport

Current Time: Apr 25, 2015 at 9:18:52 PM

Latest Report: Apr 25, 2015 at 8:52 PM


Visibility: 5 mi

Pressure: 29.76 "Hg

Humidity: 93%

Dew point: 39 °F

Location of FairfaxLocation

Historic Weather in Fairfax — Graph

°F

Fairfax temperature yesterday

Maximum temperature yesterday: 59 °F (at 3:52 PM)
Minimum temperature yesterday: 38 °F (at 5:52 AM)
Average temperature yesterday: 48 °F

Past Weeks' High & Low Weather Summary

 TemperatureHumidityPressure
High79 °F (Apr 18, 4:52 PM)97% (Apr 14, 8:52 AM)30.42 "Hg (Apr 14, 8:52 AM)
Low34 °F (Apr 12, 4:52 AM)20% (Apr 24, 5:52 PM)29.46 "Hg (Apr 20, 7:52 PM)
Average57 °F55%30.01 "Hg
* Reported Apr 10 7:52 PM — Apr 25 7:52 PM, Fairfax, Weather by CustomWeather, © 2015

Note: Actual official high and low records may vary slightly from our data, if they occured in-between our weather recording intervals... More about our weather records

Advertising

Fairfax weather history for previous 24 hours

 ConditionsComfort  
Time TempWeatherWind HumidityBarometerVisibility
7:52 PM
Sat, Apr 25
41 °FLight rain. Mostly cloudy.No wind93%29.76 "Hg8 mi
6:52 PM42 °FLight rain. Overcast.5 mph85%29.77 "Hg8 mi
5:52 PM46 °FLight rain. Mostly cloudy.8 mph61%29.78 "Hg7 mi
4:52 PM48 °FLight rain. Overcast.6 mph44%29.79 "Hg10 mi
3:52 PM50 °FOvercast.7 mph35%29.82 "Hg10 mi
2:52 PM50 °FOvercast.5 mph35%29.84 "Hg10 mi
1:52 PM49 °FOvercast.No wind33%29.88 "Hg10 mi
12:52 PM48 °FOvercast.3 mph30%29.91 "Hg10 mi
11:52 AM48 °FOvercast.No wind25%29.93 "Hg10 mi
10:52 AM48 °FMostly cloudy.3 mph28%29.96 "Hg10 mi
9:52 AM47 °FMostly cloudy.7 mph30%29.97 "Hg10 mi
8:52 AM46 °FMostly cloudy.8 mph31%29.99 "Hg10 mi
7:52 AM44 °FOvercast.8 mph37%29.97 "Hg10 mi
6:52 AM45 °FOvercast.8 mph37%29.97 "Hg10 mi
5:52 AM45 °FOvercast.8 mph38%29.96 "Hg10 mi
4:52 AM44 °FOvercast.5 mph49%29.96 "Hg10 mi
3:52 AM41 °FPassing clouds.3 mph62%29.97 "Hg10 mi
2:52 AM39 °FPassing clouds.3 mph62%29.97 "Hg10 mi
1:52 AM38 °FPassing clouds.No wind68%29.98 "Hg10 mi
12:52 AM40 °FPassing clouds.3 mph65%29.96 "Hg10 mi
11:52 PM
Fri, Apr 24
41 °FPassing clouds.No wind62%29.95 "Hg10 mi
10:52 PM45 °FPassing clouds.No wind48%29.96 "Hg10 mi
9:52 PM49 °FPassing clouds.3 mph35%29.96 "Hg10 mi
Weather by CustomWeather, © 2015

See weather overviewHow to use our weather pages